Location: Kershaw
(34.5481°N, 80.5823°W)
Time: 21:05:20
(UTC+00:00)

Vanguard 1 Rocket - All Passes

Search period start: 30 September 2022 00:00
Search period end: 10 October 2022 00:00
Orbit: 651 x 4225 km, 34.3° (Epoch: 30 September)

Date Brightness Start Highest point End Pass type
(mag) Time Alt. Az. Time Alt. Az. Time Alt. Az.
30 Sep - 01:31:27 10° WSW 01:51:16 68° SSE 02:01:13 10° E visible
30 Sep - 04:05:10 10° W 04:18:47 89° S 04:25:34 10° E visible
30 Sep - 06:36:33 10° W 06:44:23 54° SSW 06:49:11 10° SE night (unlit)
30 Sep - 21:49:06 10° S 22:07:49 27° SE 22:21:36 10° E daylight
01 Oct - 00:16:08 10° SW 00:38:01 57° SSE 00:50:01 10° E visible
01 Oct - 02:49:25 10° WSW 03:06:36 85° S 03:14:56 10° E visible
01 Oct - 05:22:35 10° W 05:33:15 77° SSW 05:38:56 10° ESE visible
01 Oct - 07:52:57 10° W 07:57:32 21° SW 08:01:06 10° SSE night (unlit)
01 Oct - 20:39:41 10° S 20:53:37 18° SE 21:05:30 10° ESE daylight
01 Oct - 23:01:46 10° SSW 23:24:14 45° SSE 23:38:12 10° E visible
02 Oct - 01:33:19 10° WSW 01:53:51 76° SSE 02:04:06 10° E visible
02 Oct - 04:07:37 10° W 04:21:34 88° S 04:28:29 10° E visible
02 Oct - 06:39:13 10° W 06:46:58 43° SSW 06:51:46 10° SE night (unlit)
02 Oct - 21:48:50 10° SSW 22:10:05 34° SE 22:25:21 10° E daylight
03 Oct - 00:17:32 10° SW 00:40:29 65° SSE 00:52:55 10° E visible
03 Oct - 02:51:44 10° W 03:09:19 88° S 03:17:50 10° E visible
03 Oct - 05:25:06 10° W 05:35:57 68° SSW 05:41:45 10° ESE visible
03 Oct - 07:56:32 10° WSW 07:59:52 15° SW 08:02:37 10° S night (unlit)
03 Oct - 20:37:55 10° S 20:55:49 24° SE 21:10:41 10° E daylight
03 Oct - 23:02:41 10° SW 23:26:33 54° SSE 23:41:13 10° E visible
04 Oct - 01:35:21 10° WSW 01:56:27 83° SSE 02:06:57 10° E visible
04 Oct - 04:10:04 10° W 04:24:20 84° S 04:31:23 10° ESE visible
04 Oct - 06:41:59 10° W 06:49:25 33° SW 06:54:09 10° SSE night (unlit)
04 Oct - 19:31:10 10° SSE 19:41:38 14° SE 19:51:29 10° ESE daylight
04 Oct - 21:49:10 10° SSW 22:12:15 42° SE 22:28:41 10° E daylight
05 Oct - 00:19:13 10° WSW 00:42:56 73° SSE 00:55:46 10° E visible
05 Oct - 02:54:06 10° W 03:12:03 89° S 03:20:44 10° E visible
05 Oct - 05:27:36 10° W 05:38:34 57° SSW 05:44:27 10° SE visible
05 Oct - 20:37:22 10° S 20:57:52 31° SE 21:14:46 10° E daylight
05 Oct - 23:03:56 10° SW 23:28:50 62° SSE 23:44:06 10° ENE visible
06 Oct - 01:37:32 10° WSW 01:59:04 87° S 02:09:49 10° E visible
06 Oct - 04:12:29 10° W 04:27:02 78° SSW 04:34:14 10° ESE visible
06 Oct - 06:44:56 10° W 06:51:43 25° SW 06:56:16 10° SSE night (unlit)
06 Oct - 19:28:08 10° S 19:43:39 20° SE 19:58:08 10° E daylight
06 Oct - 21:49:57 10° SW 22:14:21 50° SSE 22:31:44 10° E daylight
07 Oct - 00:21:06 10° WSW 00:45:24 80° SSE 00:58:36 10° E visible
07 Oct - 02:56:28 10° W 03:14:45 88° S 03:23:37 10° E visible
07 Oct - 05:30:08 10° WNW 05:41:02 47° SSW 05:47:01 10° SE visible
07 Oct - 20:37:31 10° SSW 20:59:47 38° SE 21:18:16 10° E daylight
07 Oct - 23:05:29 10° SW 23:31:07 70° SSE 23:46:55 10° ENE visible
08 Oct - 01:39:48 10° W 02:01:43 89° S 02:12:42 10° E visible
08 Oct - 04:14:52 10° W 04:29:39 70° SSW 04:37:00 10° ESE visible
08 Oct - 06:48:13 10° W 06:53:53 18° SW 06:57:58 10° S night (unlit)
08 Oct - 19:27:05 10° S 19:45:29 26° SE 20:02:51 10° E daylight
08 Oct - 21:51:06 10° SW 22:16:24 58° SSE 22:34:37 10° ENE daylight
09 Oct - 00:23:11 10° WSW 00:47:54 85° S 01:01:24 10° E visible
09 Oct - 02:58:49 10° W 03:17:27 84° SSW 03:26:28 10° ESE visible
09 Oct - 05:32:44 10° W 05:43:21 38° SW 05:49:23 10° SSE visible
09 Oct - 18:20:28 10° SSE 18:31:39 15° SE 18:43:01 10° ESE daylight
09 Oct - 20:38:12 10° SSW 21:01:38 45° SE 21:21:23 10° E daylight
09 Oct - 23:07:16 10° WSW 23:33:24 76° SSE 23:49:41 10° E visible
